Date String (YYYY-MM-DD hh:mm:ss) UTC,Instrument flags,Ambient pressure (hPa),Sample flow (lpm),Bypass flow (lpm),Sample temperature (°C),Ambient temperature (°C),ASC tube jacket temperature (°C),LED temperature (°C),Box temperature (°C),Sample RH (%),Mass concentration (μg/m³),Mass concentration (μg/m³)
DateTimeUTC,F1_M11,P_M11,Q1_M11,Q2_M11,T1_M11,T2_M11,T3_M11,T4_M11,T5_M11,U1_M11,X0_M11,X2_M11
2021-08-11 00:00:00,FlowAlarm;OPCInstrumentWarning,0826.9,4.98,0.00,29.0,28.1,00.0,37.9,31.0,15.5,0045.15,0032.99
2021-08-11 00:01:00,FlowAlarm;OPCInstrumentWarning,0826.9,5.02,0.00,29.0,26.9,00.0,37.9,30.8,15.6,0045.23,0032.98
2021-08-11 00:02:00,FlowAlarm;OPCInstrumentWarning,0827.0,5.00,0.00,28.9,25.6,00.0,37.9,30.5,15.5,0045.17,0032.94
2021-08-11 00:03:00,FlowAlarm;OPCInstrumentWarning,0826.8,5.01,0.00,28.8,25.9,00.0,37.9,30.5,15.4,0045.00,0033.01
2021-08-11 00:04:00,FlowAlarm;OPCInstrumentWarning,0826.9,5.00,0.00,28.7,26.3,00.0,37.9,30.5,15.9,0044.79,0033.08
2021-08-11 00:05:00,FlowAlarm;OPCInstrumentWarning,0826.9,5.00,0.00,28.7,26.7,00.0,37.9,30.6,15.9,0045.29,0033.21
2021-08-11 00:06:00,FlowAlarm;OPCInstrumentWarning,0826.9,5.00,0.00,28.8,27.1,00.0,37.9,30.7,15.4,0044.73,0033.31
2021-08-11 00:07:00,FlowAlarm;OPCInstrumentWarning,0826.9,5.00,0.00,28.8,27.5,00.0,37.9,30.8,15.3,0045.57,0033.43
2021-08-11 00:08:00,FlowAlarm;OPCInstrumentWarning,0827.3,4.99,0.00,28.9,27.9,00.0,37.9,31.0,15.5,0046.20,0033.61
2021-08-11 00:09:00,FlowAlarm;OPCInstrumentWarning,0827.0,5.00,0.00,29.0,28.1,00.0,38.0,31.1,15.8,0046.91,0033.77
2021-08-11 00:10:00,FlowAlarm;OPCInstrumentWarning,0827.2,5.00,0.00,29.0,27.0,00.0,38.0,30.8,15.9,0047.23,0033.86
2021-08-11 00:11:00,FlowAlarm;OPCInstrumentWarning,0826.9,5.01,0.00,28.9,25.6,00.0,37.9,30.5,16.0,0047.30,0033.95
2021-08-11 00:12:00,FlowAlarm;OPCInstrumentWarning,0826.9,5.00,0.00,28.8,25.8,00.0,37.9,30.4,16.3,0047.21,0033.96
2021-08-11 00:13:00,FlowAlarm;OPCInstrumentWarning,0826.9,5.01,0.00,28.7,26.2,00.0,37.9,30.5,16.4,0047.60,0033.93
2021-08-11 00:14:00,FlowAlarm;OPCInstrumentWarning,0827.0,5.00,0.00,28.7,26.7,00.0,37.9,30.6,16.2,0047.94,0033.85
2021-08-11 00:15:00,FlowAlarm;OPCInstrumentWarning,0826.9,4.99,0.00,28.8,27.1,00.0,37.9,30.7,16.4,0047.93,0033.82
2021-08-11 00:16:00,FlowAlarm;OPCInstrumentWarning,0826.9,5.00,0.00,28.8,27.5,00.0,37.9,30.8,16.3,0048.31,0033.76
2021-08-11 00:17:00,FlowAlarm;OPCInstrumentWarning,0827.0,4.99,0.00,28.9,27.8,00.0,37.9,30.9,16.4,0048.46,0033.67
2021-08-11 00:18:00,FlowAlarm;OPCInstrumentWarning,0826.9,5.01,0.00,28.9,27.6,00.0,37.9,30.9,16.5,0047.39,0033.51
2021-08-11 00:19:00,FlowAlarm;OPCInstrumentWarning,0826.8,5.01,0.00,28.8,26.1,00.0,37.9,30.4,17.0,0046.56,0033.31
2021-08-11 00:20:00,FlowAlarm;OPCInstrumentWarning,0826.8,5.01,0.00,28.7,25.6,00.0,37.9,30.2,17.0,0046.27,0033.15
2021-08-11 00:21:00,FlowAlarm;OPCInstrumentWarning,0826.9,4.99,0.00,28.7,26.0,00.0,37.9,30.4,16.9,0045.94,0033.01
2021-08-11 00:22:00,FlowAlarm;OPCInstrumentWarning,0826.9,5.01,0.00,28.6,26.4,00.0,37.9,30.4,16.7,0046.37,0032.91
2021-08-11 00:23:00,FlowAlarm;OPCInstrumentWarning,0827.1,4.99,0.00,28.6,26.8,00.0,37.8,30.6,16.7,0046.74,0032.89
2021-08-11 00:24:00,FlowAlarm;OPCInstrumentWarning,0827.0,5.00,0.00,28.7,27.3,00.0,37.8,30.7,16.5,0046.45,0032.87
2021-08-11 00:25:00,FlowAlarm;OPCInstrumentWarning,0826.9,5.00,0.00,28.8,27.6,00.0,37.9,30.8,16.7,0046.19,0032.89
2021-08-11 00:26:00,FlowAlarm;OPCInstrumentWarning,0827.1,5.01,0.00,28.8,27.9,00.0,37.9,30.9,16.7,0046.26,0032.90
2021-08-11 00:27:00,FlowAlarm;OPCInstrumentWarning,0826.8,5.00,0.00,28.9,27.8,00.0,37.9,30.9,16.6,0045.78,0032.91
2021-08-11 00:28:00,FlowAlarm;OPCInstrumentWarning,0827.2,4.99,0.00,28.8,26.1,00.0,37.9,30.5,16.7,0045.99,0032.96
2021-08-11 00:29:00,FlowAlarm;OPCInstrumentWarning,0826.9,5.02,0.00,28.7,25.4,00.0,37.9,30.3,16.9,0046.36,0032.99
2021-08-11 00:30:00,FlowAlarm;OPCInstrumentWarning,0826.8,4.98,0.00,28.7,25.8,00.0,37.9,30.4,17.1,0046.73,0033.00
2021-08-11 00:31:00,FlowAlarm;OPCInstrumentWarning,0826.8,5.01,0.00,28.6,26.3,00.0,37.8,30.4,17.0,0046.14,0032.98
2021-08-11 00:32:00,FlowAlarm;OPCInstrumentWarning,0826.8,4.99,0.00,28.6,26.7,00.0,37.8,30.5,17.2,0046.11,0033.01
2021-08-11 00:33:00,FlowAlarm;OPCInstrumentWarning,0826.9,5.01,0.00,28.7,27.1,00.0,37.8,30.7,17.0,0045.57,0033.04
2021-08-11 00:34:00,FlowAlarm;OPCInstrumentWarning,0826.8,4.99,0.00,28.7,27.5,00.0,37.8,30.8,16.9,0045.00,0033.00
2021-08-11 00:35:00,FlowAlarm;OPCInstrumentWarning,0826.9,4.99,0.00,28.8,27.8,00.0,37.8,30.9,16.7,0044.86,0033.05
2021-08-11 00:36:00,FlowAlarm;OPCInstrumentWarning,0826.9,5.01,0.00,28.9,28.1,00.0,37.9,31.0,15.9,0044.90,0033.07
2021-08-11 00:37:00,FlowAlarm;OPCInstrumentWarning,0826.8,5.01,0.00,28.9,28.0,00.0,37.9,31.0,15.7,0045.15,0033.07
2021-08-11 00:38:00,FlowAlarm;OPCInstrumentWarning,0826.8,4.99,0.00,28.9,26.5,00.0,37.9,30.6,15.7,0045.23,0033.12
2021-08-11 00:39:00,FlowAlarm;OPCInstrumentWarning,0826.8,5.01,0.00,28.8,25.6,00.0,37.9,30.3,15.4,0044.79,0033.13
2021-08-11 00:40:00,FlowAlarm;OPCInstrumentWarning,0826.7,4.99,0.00,28.7,25.9,00.0,37.9,30.4,15.6,0045.04,0033.20
2021-08-11 00:41:00,FlowAlarm;OPCInstrumentWarning,0826.7,5.02,0.00,28.7,26.3,00.0,37.9,30.5,15.6,0044.65,0033.25
2021-08-11 00:42:00,FlowAlarm;OPCInstrumentWarning,0826.8,5.00,0.00,28.7,26.7,00.0,37.9,30.5,15.8,0045.09,0033.38
2021-08-11 00:43:00,FlowAlarm;OPCInstrumentWarning,0826.7,4.99,0.00,28.7,27.2,00.0,37.8,30.7,15.8,0045.31,0033.53
2021-08-11 00:44:00,FlowAlarm;OPCInstrumentWarning,0826.8,5.00,0.00,28.8,27.6,00.0,37.8,30.8,15.3,0045.54,0033.65
2021-08-11 00:45:00,FlowAlarm;OPCInstrumentWarning,0826.8,4.98,0.00,28.8,27.9,00.0,37.9,30.9,15.4,0045.66,0033.77
2021-08-11 00:46:00,FlowAlarm;OPCInstrumentWarning,0827.0,5.01,0.00,28.9,28.1,00.0,37.9,31.0,15.8,0045.69,0033.79
2021-08-11 00:47:00,FlowAlarm;OPCInstrumentWarning,0827.1,5.00,0.00,29.0,27.5,00.0,37.9,30.9,15.6,0045.99,0033.87
2021-08-11 00:48:00,FlowAlarm;OPCInstrumentWarning,0826.8,5.00,0.00,28.9,25.9,00.0,37.9,30.5,15.8,0045.96,0033.95
2021-08-11 00:49:00,FlowAlarm;OPCInstrumentWarning,0826.8,5.00,0.00,28.8,25.7,00.0,37.9,30.4,16.2,0045.62,0033.96
2021-08-11 00:50:00,FlowAlarm;OPCInstrumentWarning,0826.8,4.98,0.00,28.7,26.1,00.0,37.9,30.5,15.9,0045.60,0034.01
2021-08-11 00:51:00,FlowAlarm;OPCInstrumentWarning,0826.8,5.01,0.00,28.7,26.5,00.0,37.8,30.5,16.0,0045.78,0034.01
2021-08-11 00:52:00,FlowAlarm;OPCInstrumentWarning,0827.1,5.00,0.00,28.7,26.9,00.0,37.8,30.6,15.7,0046.94,0033.93
2021-08-11 00:53:00,FlowAlarm;OPCInstrumentWarning,0827.0,5.01,0.00,28.7,27.3,00.0,37.8,30.7,15.3,0046.97,0033.83
2021-08-11 00:54:00,FlowAlarm;OPCInstrumentWarning,0827.0,5.01,0.00,28.8,27.6,00.0,37.9,30.8,15.4,0047.27,0033.74
2021-08-11 00:55:00,FlowAlarm;OPCInstrumentWarning,0826.9,4.99,0.00,28.9,28.0,00.0,37.9,30.9,15.2,0047.32,0033.66
2021-08-11 00:56:00,FlowAlarm;OPCInstrumentWarning,0827.0,5.01,0.00,29.0,28.1,00.0,37.9,31.0,15.1,0047.25,0033.53
2021-08-11 00:57:00,FlowAlarm;OPCInstrumentWarning,0826.9,4.99,0.00,28.9,26.9,00.0,37.9,30.7,15.0,0047.00,0033.33
2021-08-11 00:58:00,FlowAlarm;OPCInstrumentWarning,0827.1,4.99,0.00,28.8,25.6,00.0,37.9,30.4,15.2,0046.63,0033.10
2021-08-11 00:59:00,FlowAlarm;OPCInstrumentWarning,0826.9,5.00,0.00,28.7,25.9,00.0,37.9,30.4,15.6,0046.42,0032.89
